FW2178 Weather Reports


Display with metric or nautical units.
time (UTC)temp
F
wind
direction
speed
MPH
gust
MPH
rain 1hr
in
rain 24hr
in
rain mn
in
humidity
%
barometer
mb
20260508003904 61 40 0.0 0.0 0.00 0.00 0.00 77 1016.2
20260508003402 61 40 0.0 0.0 0.00 0.00 0.00 74 1016.3
20260508002902 61 39 0.0 0.0 0.00 0.00 0.00 74 1016.0
20260508002402 61 39 0.0 0.0 0.00 0.00 0.00 72 1016.3
20260508002153 61 38 0.0 0.0 0.00 0.00 0.00 76 1016.3
20260508001402 61 38 0.0 0.0 0.00 0.00 0.00 69 1016.2
20260508000902 61 37 0.0 0.0 0.00 0.00 0.00 67 1016.2
20260508000404 60 31 0.0 0.0 0.00 0.00 0.00 71 1016.2
20260507235903 61 24 0.0 0.0 0.00 0.00 0.00 68 1016.7
20260507235402 60 21 0.0 0.0 0.00 0.00 0.00 68 1016.5
20260507234902 60 180 0.0 0.0 0.00 0.00 0.00 70 1016.4
20260507234402 61 160 0.0 0.0 0.00 0.00 0.00 70 1016.0
20260507233903 60 153 0.0 0.0 0.00 0.00 0.00 70 1016.3
20260507233400 61 153 0.0 0.0 0.00 0.00 0.00 70 1016.6
20260507232857 60 153 0.0 0.0 0.00 0.00 0.00 69 1016.2
20260507232358 61 160 0.0 0.0 0.00 0.00 0.00 72 1016.5
20260507231857 60 152 0.0 0.0 0.00 0.00 0.00 69 1016.4
20260507231356 60 141 0.0 0.0 0.00 0.00 0.00 70 1016.7
20260507230857 60 152 0.0 0.0 0.00 0.00 0.00 70 1016.6
20260507230357 60 189 0.0 0.0 0.00 0.00 0.00 70 1016.6
20260507225856 60 153 0.0 0.0 0.00 0.00 0.00 72 1016.8
20260507225355 60 164 0.0 0.0 0.00 0.00 0.00 71 1016.9
20260507224856 60 179 0.0 0.0 0.00 0.00 0.00 71 1016.9
20260507224356 60 166 0.0 0.0 0.00 0.00 0.00 71 1017.0
20260507223855 60 104 0.0 0.0 0.00 0.00 0.00 72 1016.9
20260507223400 59 139 0.0 0.0 0.00 0.00 0.00 74 1017.1
20260507222900 59 129 0.0 0.0 0.00 0.00 0.00 72 1017.0
20260507222358 60 106 0.0 0.0 0.00 0.00 0.00 75 1017.0
20260507222144 60 122 0.0 0.0 0.00 0.00 0.00 72 1017.1
20260507221355 60 142 0.0 0.0 0.00 0.00 0.00 70 1017.1
20260507221139 60 141 0.0 0.0 0.00 0.00 0.00 71 1017.2
20260507220353 60 144 0.0 0.0 0.00 0.00 0.00 72 1017.1
20260507215852 60 178 0.0 0.0 0.00 0.00 0.00 72 1017.0
20260507215646 60 138 0.0 0.0 0.00 0.00 0.00 73 1017.6
20260507214855 60 154 0.0 0.0 0.00 0.00 0.00 74 1017.5
20260507214352 60 155 0.0 0.0 0.00 0.00 0.00 73 1017.3
20260507214147 59 140 0.0 0.0 0.00 0.00 0.00 72 1017.4
20260507213354 59 132 0.0 0.0 0.00 0.00 0.00 72 1017.6
20260507212853 59 137 0.0 0.0 0.00 0.00 0.00 73 1017.6
20260507212353 59 130 0.0 0.0 0.00 0.00 0.00 75 1017.6
20260507211853 59 71 0.0 0.0 0.00 0.00 0.00 73 1017.8
20260507211354 58 65 0.0 0.0 0.00 0.00 0.00 73 1018.1
20260507210852 59 140 0.0 0.0 0.00 0.00 0.00 77 1017.8
20260507210354 59 140 0.0 0.0 0.00 0.00 0.00 77 1018.0
20260507210232 58 141 0.0 0.0 0.00 0.00 0.00 75 1018.0
20260507210225 59 134 0.0 0.0 0.00 0.00 0.00 73 1017.9
20260507204854 58 135 0.0 0.0 0.00 0.00 0.00 75 1018.0
20260507204353 58 136 0.0 0.0 0.00 0.00 0.00 76 1018.0
20260507204137 57 134 0.0 0.0 0.00 0.00 0.00 75 1018.0
20260507203355 58 89 0.0 0.0 0.00 0.00 0.00 75 1017.9
20260507202852 57 2 0.0 0.0 0.00 0.00 0.00 75 1018.3
20260507202353 58 36 0.0 0.0 0.00 0.00 0.00 76 1018.3
20260507201853 57 90 0.0 0.0 0.00 0.00 0.00 76 1018.2
20260507201354 58 127 0.0 0.0 0.00 0.00 0.00 77 1018.4
20260507200853 58 115 0.0 0.0 0.00 0.00 0.00 77 1018.4
20260507200353 58 151 0.0 0.0 0.00 0.00 0.00 77 1018.2
20260507195853 57 133 0.0 0.0 0.00 0.00 0.00 78 1018.4
20260507195354 56 84 0.0 0.0 0.00 0.00 0.00 79 1018.3
20260507194854 57 349 0.0 0.0 0.00 0.00 0.00 77 1018.5
20260507194353 57 336 0.0 0.0 0.00 0.00 0.00 77 1018.5
20260507193853 57 156 0.0 0.0 0.00 0.00 0.00 77 1018.4
20260507193657 56 157 0.0 0.0 0.00 0.00 0.00 79 1018.4
20260507192853 56 45 0.0 0.0 0.00 0.00 0.00 79 1018.7
20260507192352 56 132 0.0 0.0 0.00 0.00 0.00 81 1018.6
20260507192149 55 127 0.0 0.0 0.00 0.00 0.00 82 1018.6
20260507191353 55 183 0.0 0.0 0.00 0.00 0.00 82 1018.4
20260507190854 55 129 0.0 0.0 0.00 0.00 0.00 85 1018.6
20260507190353 55 123 0.0 0.0 0.00 0.00 0.00 84 1018.7
20260507185852 55 128 0.0 0.0 0.00 0.00 0.00 84 1018.7
20260507185353 55 126 0.0 0.0 0.00 0.00 0.00 84 1018.7
20260507184853 55 112 0.0 0.0 0.00 0.00 0.00 83 1018.8
20260507184351 55 142 0.0 0.0 0.00 0.00 0.00 83 1019.1
20260507183853 55 139 0.0 0.0 0.00 0.00 0.00 85 1019.1
20260507183353 55 66 0.0 0.0 0.00 0.00 0.00 85 1018.7
20260507182949 55 33 0.0 0.0 0.00 0.00 0.00 86 1019.0
20260507182931 55 42 0.0 0.0 0.00 0.00 0.00 85 1019.0
20260507181852 54 110 0.0 0.0 0.00 0.00 0.00 85 1018.9
20260507181353 54 133 0.0 0.0 0.00 0.00 0.00 85 1018.9
20260507180852 54 126 0.0 0.0 0.00 0.00 0.00 85 1018.8
20260507180353 54 128 0.0 0.0 0.00 0.00 0.00 84 1019.1
20260507175852 54 134 0.0 0.0 0.00 0.00 0.00 85 1018.9
20260507175353 54 134 0.0 0.0 0.00 0.00 0.00 84 1019.1
20260507174853 54 115 0.0 0.0 0.00 0.00 0.00 83 1018.9
20260507174353 54 139 0.0 0.0 0.00 0.00 0.00 82 1018.9
20260507173852 54 140 0.0 0.0 0.00 0.00 0.00 83 1018.9
20260507173353 55 139 0.0 0.0 0.00 0.00 0.00 83 1018.8
20260507172852 54 140 0.0 0.0 0.00 0.00 0.00 83 1018.8
20260507172659 54 134 0.0 0.0 0.00 0.00 0.00 83 1018.8
20260507171851 54 140 0.0 0.0 0.00 0.00 0.00 85 1018.9
20260507171352 54 133 0.0 0.0 0.00 0.00 0.00 85 1019.0
20260507170852 54 103 0.0 0.0 0.00 0.00 0.00 84 1018.9
20260507170353 54 103 0.0 0.0 0.00 0.00 0.00 83 1018.9
20260507165853 54 103 0.0 0.0 0.00 0.00 0.00 84 1018.9
20260507165354 53 101 0.0 0.0 0.00 0.00 0.00 86 1018.8
20260507164852 53 101 0.0 0.0 0.00 0.00 0.00 86 1018.7
20260507164646 53 101 0.0 0.0 0.00 0.00 0.00 87 1018.9
20260507164145 54 101 0.0 0.0 0.00 0.00 0.00 86 1018.7
20260507163353 53 99 0.0 0.0 0.00 0.00 0.00 84 1019.1
20260507162853 53 98 0.0 0.0 0.00 0.00 0.00 82 1018.9
20260507162409 54 126 0.0 0.0 0.00 0.00 0.00 83 1018.9
20260507161853 53 136 0.0 0.0 0.00 0.00 0.00 83 1018.7
20260507161643 53 139 0.0 0.0 0.00 0.00 0.00 83 1018.7
20260507160858 53 139 0.0 0.0 0.00 0.00 0.00 84 1019.0
20260507160642 53 124 0.0 0.0 0.00 0.00 0.00 83 1018.8
20260507155854 53 137 0.0 0.0 0.00 0.00 0.00 84 1018.9
20260507155402 53 143 0.0 0.0 0.00 0.00 0.00 83 1019.0
20260507154936 54 132 0.0 0.0 0.00 0.00 0.00 84 1018.9
20260507154919 54 134 0.0 0.0 0.00 0.00 0.00 84 1019.0
20260507154128 53 137 0.0 0.0 0.00 0.00 0.00 84 1018.9
20260507153649 53 148 0.0 0.0 0.00 0.00 0.00 86 1019.0
20260507152847 53 150 0.0 0.0 0.00 0.00 0.00 85 1018.9
20260507152343 53 140 0.0 0.0 0.00 0.00 0.00 86 1019.3
20260507151842 53 140 0.0 0.0 0.00 0.00 0.00 86 1019.0
20260507151341 53 139 0.0 0.0 0.00 0.00 0.00 87 1019.3
20260507150842 53 139 0.0 0.0 0.00 0.00 0.00 87 1019.1
20260507150343 52 139 0.0 0.0 0.00 0.00 0.00 87 1019.0
20260507145842 52 138 0.0 0.0 0.00 0.00 0.00 88 1019.2
20260507145342 52 135 0.0 0.0 0.00 0.00 0.00 91 1019.2
20260507145130 52 134 0.0 0.0 0.00 0.00 0.00 93 1019.0
20260507144344 51 134 0.0 0.0 0.00 0.00 0.00 94 1019.1
20260507144132 51 134 0.0 0.0 0.00 0.00 0.00 94 1019.2
20260507143341 51 134 0.0 0.0 0.00 0.00 0.00 94 1019.1
20260507143125 50 134 0.0 0.0 0.00 0.00 0.00 95 1018.9
20260507142341 50 134 0.0 0.0 0.00 0.00 0.00 95 1019.1
20260507142127 50 134 0.0 0.0 0.00 0.00 0.00 96 1019.0
20260507141341 50 134 0.0 0.0 0.00 0.00 0.00 96 1019.2
20260507140840 50 134 0.0 0.0 0.00 0.00 0.00 96 1018.8
20260507140341 49 134 0.0 0.0 0.00 0.00 0.00 96 1018.9
20260507135839 49 134 0.0 0.0 0.00 0.00 0.00 96 1019.0
20260507135341 49 134 0.0 0.0 0.00 0.00 0.00 96 1018.9
20260507135125 49 134 0.0 0.0 0.00 0.00 0.00 96 1019.1
20260507134341 49 135 0.0 0.0 0.00 0.00 0.00 96 1019.1
20260507133840 49 135 0.0 0.0 0.00 0.00 0.00 96 1019.0
20260507133341 49 139 0.0 0.0 0.00 0.00 0.00 96 1019.0
20260507132841 49 139 0.0 0.0 0.00 0.00 0.00 95 1018.6
20260507132341 49 139 0.0 0.0 0.00 0.00 0.00 95 1018.9
20260507132235 49 139 0.0 0.0 0.00 0.00 0.00 96 1018.6
20260507132226 49 139 0.0 0.0 0.00 0.00 0.00 95 1018.9
20260507130839 49 139 0.0 0.0 0.00 0.00 0.00 96 1018.7
20260507130635 49 139 0.0 0.0 0.00 0.00 0.00 96 1019.0
20260507125840 49 139 0.0 0.0 0.00 0.00 0.00 96 1018.8
20260507125340 49 139 0.0 0.0 0.00 0.00 0.00 96 1018.9
20260507124841 49 139 0.0 0.0 0.00 0.00 0.00 95 1018.5
20260507124340 49 139 0.0 0.0 0.00 0.00 0.00 95 1018.9
20260507123839 49 139 0.0 0.0 0.00 0.00 0.00 95 1019.0
20260507123340 49 139 0.0 0.0 0.00 0.00 0.00 95 1019.0
20260507122840 49 139 0.0 0.0 0.00 0.00 0.00 95 1018.8
20260507122340 49 139 0.0 0.0 0.00 0.00 0.00 95 1018.9
20260507121838 49 139 0.0 0.0 0.00 0.00 0.00 95 1018.7
20260507121341 49 139 0.0 0.0 0.00 0.00 0.00 95 1019.1
20260507120841 49 139 0.0 0.0 0.00 0.00 0.00 95 1019.1
20260507120341 49 139 0.0 0.0 0.00 0.00 0.00 95 1018.9
20260507115840 49 139 0.0 0.0 0.00 0.00 0.00 95 1019.2
20260507115341 49 139 0.0 0.0 0.00 0.00 0.00 95 1018.9
20260507115147 49 139 0.0 0.0 0.00 0.00 0.00 95 1019.1
20260507114341 50 139 0.0 0.0 0.00 0.00 0.00 94 1019.2
20260507114124 50 139 0.0 0.0 0.00 0.00 0.00 94 1019.1
20260507113341 50 139 0.0 0.0 0.00 0.00 0.00 94 1019.5
20260507112839 50 139 0.0 0.0 0.00 0.00 0.00 94 1019.4
20260507112340 50 139 0.0 0.0 0.00 0.00 0.00 94 1019.2
20260507111840 50 139 0.0 0.0 0.00 0.00 0.00 94 1019.3
20260507111341 50 139 0.0 0.0 0.00 0.00 0.00 94 1019.2
20260507111123 50 139 0.0 0.0 0.00 0.00 0.00 94 1019.4
20260507110341 50 139 0.0 0.0 0.00 0.00 0.00 94 1019.3
20260507105840 50 139 0.0 0.0 0.00 0.00 0.00 94 1019.5
20260507105422 50 139 0.0 0.0 0.00 0.00 0.00 94 1019.5
20260507104341 50 139 0.0 0.0 0.00 0.00 0.00 93 1019.1
20260507103840 51 139 0.0 0.0 0.00 0.00 0.00 93 1019.4
20260507103341 51 139 0.0 0.0 0.00 0.00 0.00 93 1019.4
20260507102841 51 139 0.0 0.0 0.00 0.00 0.00 93 1019.5
20260507102341 51 139 0.0 0.0 0.00 0.00 0.00 92 1019.4
20260507101837 51 139 0.0 0.0 0.00 0.00 0.00 92 1019.4
20260507101337 52 139 0.0 0.0 0.00 0.00 0.00 91 1019.5
20260507101143 52 140 0.0 0.0 0.00 0.00 0.00 90 1019.3
20260507100337 52 140 0.0 0.0 0.00 0.00 0.00 90 1019.3
20260507095836 52 140 0.0 0.0 0.00 0.00 0.00 90 1019.5
20260507095337 52 140 0.0 0.0 0.00 0.00 0.00 89 1019.7
20260507094835 52 139 0.0 0.0 0.00 0.00 0.00 89 1019.6
20260507094337 53 139 0.0 0.0 0.00 0.00 0.00 89 1019.5
20260507093941 53 139 0.0 0.0 0.00 0.00 0.00 90 1019.5
20260507093652 53 139 0.0 0.0 0.00 0.00 0.00 91 1019.6
20260507092342 53 139 0.0 0.0 0.00 0.00 0.00 91 1019.5
20260507091839 53 139 0.0 0.0 0.00 0.00 0.00 91 1019.6
20260507091341 53 139 0.0 0.0 0.00 0.00 0.00 92 1019.5
20260507090838 53 139 0.0 0.0 0.00 0.00 0.00 91 1019.6
20260507090349 53 139 0.0 0.0 0.00 0.00 0.00 92 1019.6
20260507085837 53 139 0.0 0.0 0.00 0.00 0.00 92 1019.5
20260507085337 53 140 0.0 0.0 0.00 0.00 0.00 92 1019.7
20260507084836 53 140 0.0 0.0 0.00 0.00 0.00 92 1019.5
20260507084337 53 140 0.0 0.0 0.00 0.00 0.00 92 1019.6
20260507084121 53 140 0.0 0.0 0.00 0.00 0.00 92 1019.5
20260507083337 53 140 0.0 0.0 0.00 0.00 0.00 92 1019.4
20260507082837 53 140 0.0 0.0 0.00 0.00 0.00 92 1019.3
20260507082337 53 140 0.0 0.0 0.00 0.00 0.00 91 1019.3
20260507081836 53 140 0.0 0.0 0.00 0.00 0.00 91 1019.5
20260507081337 53 140 0.0 0.0 0.00 0.00 0.00 91 1019.6
20260507081120 53 140 0.0 0.0 0.00 0.00 0.00 91 1019.5
20260507080332 53 140 0.0 0.0 0.00 0.00 0.00 91 1019.5
20260507075832 53 140 0.0 0.0 0.00 0.00 0.00 92 1019.3
20260507075345 53 140 0.0 0.0 0.00 0.00 0.00 92 1019.5
20260507074832 53 140 0.0 0.0 0.00 0.00 0.00 92 1019.3
20260507074332 53 140 0.0 0.0 0.00 0.00 0.00 92 1019.3
20260507073832 53 139 0.0 0.0 0.00 0.00 0.00 92 1019.2
20260507073332 53 142 0.0 0.0 0.00 0.00 0.00 91 1019.3
20260507072831 53 143 0.0 0.0 0.00 0.00 0.00 90 1019.4
20260507072332 53 143 0.0 0.0 0.00 0.00 0.00 90 1019.3
20260507071833 53 150 0.0 0.0 0.00 0.00 0.00 90 1019.2
20260507071332 53 149 0.0 0.0 0.00 0.00 0.00 90 1019.2
20260507070831 53 148 0.0 0.0 0.00 0.00 0.00 90 1018.9
20260507070331 54 145 0.0 0.0 0.00 0.00 0.00 90 1019.2
20260507065832 53 145 0.0 0.0 0.00 0.00 0.00 90 1019.4
20260507065332 53 146 0.0 0.0 0.00 0.00 0.00 91 1019.3
20260507065116 53 146 0.0 0.0 0.00 0.00 0.00 92 1019.2
20260507064617 53 145 0.0 0.0 0.00 0.00 0.00 92 1019.2
20260507063832 53 145 0.0 0.0 0.00 0.00 0.00 94 1019.1
20260507063332 53 144 0.0 0.0 0.00 0.00 0.00 94 1019.1
20260507062832 53 144 0.0 0.0 0.00 0.00 0.00 94 1019.1
20260507062332 53 145 0.0 0.0 0.00 0.00 0.00 94 1019.2
20260507061832 53 145 0.0 0.0 0.00 0.00 0.00 94 1019.3
20260507061640 53 145 0.0 0.0 0.00 0.00 0.00 94 1019.2
20260507060831 53 144 0.0 0.0 0.00 0.00 0.00 94 1019.1
20260507060618 53 144 0.0 0.0 0.00 0.00 0.00 93 1019.2
20260507055828 53 149 0.0 0.0 0.00 0.00 0.00 93 1019.2
20260507055329 53 149 0.0 0.0 0.00 0.00 0.00 94 1019.2
20260507054828 53 149 0.0 0.0 0.00 0.00 0.00 94 1019.2
20260507054329 53 149 0.0 0.0 0.00 0.00 0.00 93 1019.1
20260507053830 53 149 0.0 0.0 0.00 0.00 0.00 93 1019.3
20260507053627 53 149 0.0 0.0 0.00 0.00 0.00 93 1019.4
20260507052829 53 149 0.0 0.0 0.00 0.00 0.00 93 1019.3
20260507052329 53 149 0.0 0.0 0.00 0.00 0.00 93 1019.3
20260507051829 53 149 0.0 0.0 0.00 0.00 0.00 93 1019.3
20260507051329 53 148 0.0 0.0 0.00 0.00 0.00 93 1019.1
20260507050830 53 148 0.0 0.0 0.00 0.00 0.00 93 1019.5
20260507050329 53 148 0.0 0.0 0.00 0.00 0.00 93 1019.3
20260507045829 53 148 0.0 0.0 0.00 0.00 0.00 93 1019.3
20260507045329 53 148 0.0 0.0 0.00 0.00 0.00 93 1019.3
20260507044830 53 148 0.0 0.0 0.00 0.00 0.00 93 1019.4
20260507044328 53 148 0.0 0.0 0.00 0.00 0.00 93 1019.2
20260507043829 53 148 0.0 0.0 0.00 0.00 0.00 93 1019.2
20260507043329 53 148 0.0 0.0 0.00 0.00 0.00 93 1019.2
20260507043143 53 148 0.0 0.0 0.00 0.00 0.00 93 1019.4
20260507042329 53 148 0.0 0.0 0.00 0.00 0.00 93 1019.2
20260507041829 53 148 0.0 0.0 0.00 0.00 0.00 92 1019.2
20260507041329 53 147 0.0 0.0 0.00 0.00 0.00 92 1019.2
20260507040830 53 148 0.0 0.0 0.00 0.00 0.00 92 1019.1
20260507040330 53 147 0.0 0.0 0.00 0.00 0.00 91 1019.0
20260507040139 53 147 0.0 0.0 0.00 0.00 0.00 91 1019.0
20260507035618 54 147 0.0 0.0 0.00 0.00 0.00 90 1019.3
20260507034831 54 147 0.0 0.0 0.00 0.00 0.00 90 1019.0
20260507034644 54 147 0.0 0.0 0.00 0.00 0.00 89 1018.8
20260507033834 54 147 0.0 0.0 0.00 0.00 0.00 89 1019.0
20260507033353 55 147 0.0 0.0 0.00 0.00 0.00 89 1019.0
20260507032329 55 147 0.0 0.0 0.00 0.00 0.00 88 1019.0
20260507032113 55 160 0.0 0.0 0.00 0.00 0.00 87 1018.8
20260507031420 55 160 0.0 0.0 0.00 0.00 0.00 87 1018.9
20260507031403 55 160 0.0 0.0 0.00 0.00 0.00 87 1018.9
20260507030329 55 155 0.0 0.0 0.00 0.00 0.00 87 1019.0
20260507030134 55 155 0.0 0.0 0.00 0.00 0.00 86 1019.0
20260507025329 55 155 0.0 0.0 0.00 0.00 0.00 86 1018.7
20260507024917 55 155 0.0 0.0 0.00 0.00 0.00 85 1019.1
20260507024901 55 155 0.0 0.0 0.00 0.00 0.00 86 1018.9
20260507023829 56 154 0.0 0.0 0.00 0.00 0.00 86 1018.7
20260507023329 55 155 0.0 0.0 0.00 0.00 0.00 85 1018.7
20260507022830 56 155 0.0 0.0 0.00 0.00 0.00 85 1018.9
20260507022329 56 155 0.0 0.0 0.00 0.00 0.00 85 1018.8
20260507021829 56 155 0.0 0.0 0.00 0.00 0.00 85 1019.0
20260507021328 56 145 0.0 0.0 0.00 0.00 0.00 85 1018.9
20260507020829 56 154 0.0 0.0 0.00 0.00 0.00 84 1018.9
20260507020329 56 140 0.0 0.0 0.00 0.00 0.00 84 1018.7
20260507015829 56 146 0.0 0.0 0.00 0.00 0.00 84 1018.7
20260507015329 56 144 0.0 0.0 0.00 0.00 0.00 83 1018.7
20260507014829 56 143 0.0 0.0 0.00 0.00 0.00 83 1018.6
20260507014329 56 151 0.0 0.0 0.00 0.00 0.00 83 1018.6
20260507013831 56 142 0.0 0.0 0.00 0.00 0.00 83 1018.7
20260507013618 56 147 0.0 0.0 0.00 0.00 0.00 83 1018.7
20260507012828 56 143 0.0 0.0 0.00 0.00 0.00 82 1018.8
20260507012329 56 148 0.0 0.0 0.00 0.00 0.00 81 1018.7
20260507011828 56 156 0.0 0.0 0.00 0.00 0.00 80 1018.8
20260507011329 56 147 0.0 0.0 0.00 0.00 0.00 80 1018.8
20260507010828 57 137 0.0 0.0 0.00 0.00 0.00 80 1018.8
20260507010329 57 139 0.0 0.0 0.00 0.00 0.00 79 1018.6
20260507005830 56 143 0.0 0.0 0.00 0.00 0.00 79 1019.0
20260507005330 56 145 0.0 0.0 0.00 0.00 0.00 80 1018.8
20260507004829 56 145 0.0 0.0 0.00 0.00 0.00 79 1019.0
20260507004618 56 144 0.0 0.0 0.00 0.00 0.00 79 1018.8